| time (UTC) | temp F | wind direction | speed knots | gust knots | rain 1hr in | rain 24hr in | rain mn in | humidity % | barometer mb |
| 20260504081556 | 46 | 61 | 7.0 | 15.6 | 0.00 | 0.00 | 0.00 | 52 | 1014.9 |
| 20260504044532 | 55 | 359 | 20.0 | 26.1 | 0.00 | 0.00 | 0.00 | 33 | 1010.5 |
| 20260504043032 | 56 | 352 | 13.0 | 17.4 | 0.00 | 0.00 | 0.00 | 33 | 1010.1 |
| 20260504041534 | 56 | 72 | 3.5 | 10.4 | 0.00 | 0.00 | 0.00 | 33 | 1009.9 |
| 20260504040032 | 56 | 263 | 2.6 | 7.8 | 0.00 | 0.00 | 0.00 | 33 | 1009.6 |
| 20260504034540 | 56 | 37 | 4.3 | 13.0 | 0.00 | 0.00 | 0.00 | 32 | 1009.2 |
| 20260504033031 | 57 | 46 | 7.0 | 13.9 | 0.00 | 0.00 | 0.00 | 32 | 1008.9 |
| 20260504031528 | 58 | 340 | 7.8 | 15.6 | 0.00 | 0.00 | 0.00 | 31 | 1008.6 |
| 20260504030037 | 59 | 36 | 5.2 | 11.3 | 0.00 | 0.00 | 0.00 | 30 | 1008.4 |
| 20260504024527 | 60 | 84 | 4.3 | 9.6 | 0.00 | 0.00 | 0.00 | 29 | 1008.3 |
| 20260504023027 | 62 | 338 | 5.2 | 10.4 | 0.00 | 0.00 | 0.00 | 27 | 1008.1 |
| 20260504021525 | 63 | 72 | 3.5 | 13.0 | 0.00 | 0.00 | 0.00 | 23 | 1008.1 |
| 20260504020028 | 65 | 354 | 4.3 | 6.1 | 0.00 | 0.00 | 0.00 | 17 | 1008.0 |
| 20260504014525 | 68 | 346 | 5.2 | 11.3 | 0.00 | 0.00 | 0.00 | 15 | 1008.1 |
| 20260504013025 | 70 | 323 | 8.7 | 14.8 | 0.00 | 0.00 | 0.00 | 13 | 1008.1 |
| 20260504011522 | 71 | 315 | 7.8 | 13.0 | 0.00 | 0.00 | 0.00 | 13 | 1008.1 |
| 20260504010021 | 72 | 323 | 7.8 | 15.6 | 0.00 | 0.00 | 0.00 | 13 | 1008.2 |
| 20260504004522 | 73 | 330 | 8.7 | 15.6 | 0.00 | 0.00 | 0.00 | 13 | 1008.2 |
| 20260504003017 | 73 | 11 | 8.7 | 17.4 | 0.00 | 0.00 | 0.00 | 13 | 1008.3 |
| 20260504001516 | 73 | 302 | 11.3 | 15.6 | 0.00 | 0.00 | 0.00 | 12 | 1008.5 |
| 20260504000016 | 73 | 310 | 12.2 | 19.1 | 0.00 | 0.00 | 0.00 | 12 | 1008.6 |
| 20260503234514 | 74 | 321 | 8.7 | 16.5 | 0.00 | 0.00 | 0.00 | 12 | 1008.6 |
| 20260503233013 | 74 | 20 | 12.2 | 17.4 | 0.00 | 0.00 | 0.00 | 12 | 1008.7 |
| 20260503231517 | 74 | 308 | 9.6 | 18.2 | 0.00 | 0.00 | 0.00 | 12 | 1008.8 |
| 20260503230013 | 74 | 298 | 10.4 | 18.2 | 0.00 | 0.00 | 0.00 | 12 | 1008.7 |
| 20260503224509 | 73 | 279 | 7.8 | 18.2 | 0.00 | 0.00 | 0.00 | 13 | 1009.0 |
| 20260503223020 | 73 | 298 | 10.4 | 15.6 | 0.00 | 0.00 | 0.00 | 12 | 1009.2 |
| 20260503221506 | 74 | 307 | 11.3 | 23.5 | 0.00 | 0.00 | 0.00 | 12 | 1009.2 |
| 20260503220006 | 73 | 309 | 12.2 | 15.6 | 0.00 | 0.00 | 0.00 | 13 | 1009.4 |
| 20260503214502 | 73 | 297 | 12.2 | 20.0 | 0.00 | 0.00 | 0.00 | 13 | 1009.6 |
| 20260503213001 | 73 | 290 | 7.0 | 20.0 | 0.00 | 0.00 | 0.00 | 13 | 1009.6 |
| 20260503211621 | 72 | 250 | 9.6 | 16.5 | 0.00 | 0.00 | 0.00 | 14 | 1009.8 |
| 20260503210057 | 73 | 320 | 12.2 | 18.2 | 0.00 | 0.00 | 0.00 | 13 | 1010.1 |
| 20260503204615 | 73 | 290 | 5.2 | 13.9 | 0.00 | 0.00 | 0.00 | 14 | 1010.2 |
| 20260503203104 | 72 | 290 | 9.6 | 15.6 | 0.00 | 0.00 | 0.00 | 14 | 1010.3 |
| 20260503201553 | 72 | 281 | 7.0 | 15.6 | 0.00 | 0.00 | 0.00 | 14 | 1010.5 |
| 20260503200052 | 71 | 311 | 5.2 | 15.6 | 0.00 | 0.00 | 0.00 | 14 | 1010.7 |
| 20260503194548 | 71 | 301 | 7.0 | 11.3 | 0.00 | 0.00 | 0.00 | 14 | 1011.0 |
| 20260503193047 | 71 | 323 | 10.4 | 14.8 | 0.00 | 0.00 | 0.00 | 15 | 1011.2 |
| 20260503191557 | 70 | 300 | 7.8 | 15.6 | 0.00 | 0.00 | 0.00 | 16 | 1011.3 |
| 20260503190043 | 69 | 323 | 5.2 | 12.2 | 0.00 | 0.00 | 0.00 | 16 | 1011.5 |
| 20260503184556 | 69 | 297 | 9.6 | 14.8 | 0.00 | 0.00 | 0.00 | 16 | 1011.6 |
| 20260503183045 | 69 | 287 | 6.1 | 16.5 | 0.00 | 0.00 | 0.00 | 15 | 1011.7 |
| 20260503181537 | 69 | 309 | 8.7 | 15.6 | 0.00 | 0.00 | 0.00 | 15 | 1011.9 |
| 20260503180036 | 69 | 345 | 4.3 | 12.2 | 0.00 | 0.00 | 0.00 | 17 | 1012.1 |
| 20260503174544 | 69 | 303 | 9.6 | 16.5 | 0.00 | 0.00 | 0.00 | 16 | 1012.3 |
| 20260503173032 | 69 | 288 | 7.8 | 13.9 | 0.00 | 0.00 | 0.00 | 16 | 1012.5 |
| 20260503171533 | 68 | 340 | 7.0 | 13.9 | 0.00 | 0.00 | 0.00 | 17 | 1012.5 |